Weather History for KPOF - February, 2013

Change the Weather History Date:

Wednesday, February 13, 2013

  Actual Average (KCGI) Record (KCGI)
Temperature  
Mean Temperature 45 °F 37 °F  
Max Temperature 51 °F 47 °F 79 °F (1962)
Min Temperature 39 °F 28 °F 5 °F (1980)
Degree Days  
Heating Degree Days 20 28  
Month to date heating degree days 380  
Since 1 July heating degree days 3118  
Cooling Degree Days 0 0  
Month to date cooling degree days 0  
Year to date cooling degree days 0  
Moisture  
Dew Point 37 °F    
Average Humidity 79    
Maximum Humidity 93    
Minimum Humidity 54    
Precipitation  
Precipitation 0.24 in 0.13 in 3.16 in (1989)
Month to date precipitation 1.62  
Year to date precipitation 5.09  
Sea Level Pressure  
Sea Level Pressure 29.92 in    
Wind  
Wind Speed 8 mph (West)    
Max Wind Speed 18 mph    
Max Gust Speed -    
Visibility 9 miles    
Events Rain    
T = Trace of Precipitation, MM = Missing Value Source: NWS Daily Summary

Daily Weather History Graph

Daily Weather History Graph

Search for Another Location

Airport or City:

Trip Planner

Search our weather history database for the weather conditions in past years. The results will help you decide how hot, cold, wet, or windy it might be!

Date:

Astronomy

Feb. 13, 2013 Rise Set
Actual Time 6:51 AM CST 5:39 PM CST
Civil Twilight 6:24 AM CST 6:06 PM CST
Nautical Twilight 5:54 AM CST 6:36 PM CST
Astronomical Twilight 5:24 AM CST 7:07 PM CST
Moon 8:28 AM CST (2/13) 9:34 PM CST (2/13)
Length of Visible Light 11h 41m
Length of Day
10h 48m
Waxing Crescent, 14% of the Moon is Illuminated
Feb 13
Waxing Crescent
Feb 17
First Quarter
Feb 25
Full
Mar 4
Last Quarter
Mar 11
New

Hourly Weather History & Observations

Time (CST) Temp. Windchill Dew Point Humidity Pressure Visibility Wind Dir Wind Speed Gust Speed Precip Events Conditions
12:02 AM 42.8 °F 41.1 °F 35.6 °F 76% 29.90 in 10.0 mi Variable 3.5 mph - 0.01 in Rain Light Rain
12:53 AM 42.1 °F 35.2 °F 36.0 °F 79% 29.89 in 10.0 mi NNW 12.7 mph - 0.04 in Rain Light Rain
1:41 AM 41.0 °F 32.5 °F 35.6 °F 81% 29.88 in 5.0 mi North 17.3 mph - 0.04 in Rain Rain
1:53 AM 39.9 °F 30.8 °F 36.0 °F 86% 29.89 in 4.0 mi North 18.4 mph - 0.07 in Rain Rain
2:53 AM 39.0 °F 32.8 °F 36.0 °F 89% 29.89 in 8.0 mi North 9.2 mph - 0.08 in Rain Light Rain
3:38 AM 39.2 °F 33.0 °F 35.6 °F 87% 29.86 in 8.0 mi NNW 9.2 mph - 0.02 in Rain Light Rain
3:53 AM 39.9 °F 33.9 °F 36.0 °F 86% 29.87 in 10.0 mi NNW 9.2 mph - 0.02 in Rain Light Rain
4:37 AM 39.2 °F 35.0 °F 35.6 °F 87% 29.86 in 9.0 mi NW 5.8 mph - 0.01 in Rain Light Rain
4:51 AM 39.2 °F 35.9 °F 35.6 °F 87% 29.86 in 9.0 mi North 4.6 mph - 0.02 in Rain Light Rain
4:53 AM 39.9 °F 35.8 °F 36.0 °F 86% 29.87 in 9.0 mi North 5.8 mph - 0.02 in Rain Light Rain
5:53 AM 39.9 °F 37.8 °F 36.0 °F 86% 29.88 in 9.0 mi North 3.5 mph - 0.00 in Rain Light Rain
6:53 AM 39.9 °F 36.7 °F 37.0 °F 89% 29.91 in 7.0 mi NNW 4.6 mph - 0.00 in   Overcast
7:36 AM 39.2 °F 37.0 °F 37.4 °F 93% 29.92 in 10.0 mi NNW 3.5 mph - N/A   Overcast
8:34 AM 39.2 °F 35.0 °F 35.6 °F 87% 29.95 in 10.0 mi NW 5.8 mph - 0.01 in Rain Light Rain
8:53 AM 41.0 °F 38.0 °F 36.0 °F 82% 29.96 in 10.0 mi NW 4.6 mph - 0.01 in Rain Light Rain
9:53 AM 41.0 °F 38.0 °F 36.0 °F 82% 29.98 in 10.0 mi NW 4.6 mph - 0.00 in   Overcast
10:05 AM 41.0 °F 38.0 °F 35.6 °F 81% 29.97 in 10.0 mi NW 4.6 mph - N/A   Overcast
10:24 AM 41.0 °F 39.0 °F 35.6 °F 81% 29.97 in 10.0 mi NW 3.5 mph - N/A   Overcast
10:53 AM 41.0 °F - 35.1 °F 79% 29.97 in 10.0 mi Calm Calm - N/A   Overcast
11:29 AM 42.8 °F 40.1 °F 37.4 °F 81% 29.96 in 10.0 mi WSW 4.6 mph - N/A   Overcast
11:53 AM 44.1 °F 40.1 °F 37.9 °F 79% 29.97 in 10.0 mi SW 6.9 mph - N/A   Overcast
12:02 PM 44.6 °F 40.2 °F 37.4 °F 76% 29.95 in 10.0 mi SW 8.1 mph - N/A   Overcast
12:15 PM 44.6 °F 39.2 °F 37.4 °F 76% 29.94 in 10.0 mi SSW 10.4 mph - N/A   Overcast
12:53 PM 46.0 °F 41.9 °F 37.9 °F 73% 29.94 in 10.0 mi SW 8.1 mph - N/A   Scattered Clouds
1:03 PM 46.4 °F 42.4 °F 37.4 °F 71% 29.92 in 10.0 mi WSW 8.1 mph - N/A   Mostly Cloudy
1:14 PM 46.4 °F 42.9 °F 37.4 °F 71% 29.92 in 10.0 mi SW 6.9 mph - N/A   Scattered Clouds
1:53 PM 48.0 °F - 39.0 °F 71% 29.91 in 10.0 mi SW 11.5 mph - N/A   Partly Cloudy
2:53 PM 48.9 °F - 39.0 °F 69% 29.91 in 10.0 mi SSW 12.7 mph - N/A   Clear
3:53 PM 50.0 °F - 39.0 °F 66% 29.90 in 10.0 mi SSW 16.1 mph - N/A   Scattered Clouds
4:53 PM 51.1 °F - 35.1 °F 54% 29.89 in 10.0 mi SW 11.5 mph - N/A   Clear
5:53 PM 46.9 °F - 36.0 °F 66% 29.90 in 10.0 mi SSW 6.9 mph - N/A   Clear
6:53 PM 45.0 °F 40.6 °F 37.0 °F 74% 29.91 in 10.0 mi SSW 8.1 mph - N/A   Clear
7:53 PM 44.1 °F 40.8 °F 36.0 °F 73% 29.92 in 10.0 mi SW 5.8 mph - N/A   Clear
8:53 PM 44.1 °F 39.0 °F 36.0 °F 73% 29.94 in 10.0 mi SW 9.2 mph - N/A   Clear
9:53 PM 42.1 °F 37.1 °F 37.9 °F 85% 29.94 in 10.0 mi SW 8.1 mph - N/A   Clear
10:53 PM 42.1 °F 36.6 °F 37.0 °F 82% 29.95 in 10.0 mi SSW 9.2 mph - N/A   Clear
11:53 PM 39.9 °F 35.1 °F 36.0 °F 86% 29.95 in 10.0 mi SSW 6.9 mph - N/A   Clear